Stations météo

Publicité
Aurillac, France (7549): Température de l'air & dewpoint: 20.06.2017 07:00:00 - 26.06.2017 07:00:00 (CEST)Aurillac, France (7549): Température de l'air 5cm: 20.06.2017 07:00:00 - 26.06.2017 07:00:00 (CEST)Aurillac, France (7549): Température de l'air -20cm & Température de l'air -100cm: 20.06.2017 07:00:00 - 26.06.2017 07:00:00 (CEST)Aurillac, France (7549): Vitesse du vent & gusts: 20.06.2017 07:00:00 - 26.06.2017 07:00:00 (CEST)Aurillac, France (7549): Direction du vent: 20.06.2017 07:00:00 - 26.06.2017 07:00:00 (CEST)Aurillac, France (7549): reduced air pressure: 20.06.2017 07:00:00 - 26.06.2017 07:00:00 (CEST)Aurillac, France (7549): visibility: 20.06.2017 07:00:00 - 26.06.2017 07:00:00 (CEST)Aurillac, France (7549): Ensoleillement: 20.06.2017 07:00:00 - 26.06.2017 07:00:00 (CEST)Aurillac, France (7549): Quantités de précipitations: 20.06.2017 07:00:00 - 26.06.2017 07:00:00 (CEST)
Date & Time tt [°C] td [°C] tt 5cm [°C] tt -20cm [°C] tt -100cm [°C] ff [km/h] ff [knt] fx [km/h] fx [knt] dd ppp [hPa] vv [km] sd [min] rr [mm]
26.06.2017 07:00:00 18,8 11,8 16,8 21,8 16,7 9 5 18 10 E 1010,9 60 0 0,0
26.06.2017 06:00:00 18,1 11,9 15,2 21,9 16,7 8 4 12 6 ESE 1012,1 60 0 0,0
26.06.2017 05:00:00 16,9 12,0 13,2 21,9 16,6 8 4 12 7 SE 1012,5 60 0 0,0
26.06.2017 04:00:00 15,7 12,3 11,9 22,0 16,6 6 3 8 4 E 1013,4 60 0 0,0
26.06.2017 03:00:00 15,3 12,4 11,1 22,0 16,6 5 3 8 4 E 1014,0 60 0 0,0
26.06.2017 02:00:00 14,6 12,1 9,1 22,0 16,6 7 4 8 5 SE 1014,9 60 0 0,0
26.06.2017 01:00:00 16,5 12,5 12,1 22,0 16,6 4 2 8 5 SE 1014,9 60 0 0,0
26.06.2017 00:00:00 16,4 12,7 11,6 21,9 16,6 7 4 9 5 E 1015,5 60 0 0,0
25.06.2017 23:00:00 19,1 12,8 12,3 21,8 16,6 5 3 8 5 SW 1015,4 60 0 0,0
25.06.2017 22:00:00 21,9 13,0 15,8 21,7 16,6 6 3 13 7 N 1013,9 60 9 0,0
25.06.2017 21:00:00 24,0 12,3 21,0 21,5 16,6 7 4 17 9 W 1013,6 60 41 0,0
25.06.2017 20:00:00 25,1 11,6 25,3 21,4 16,6 11 6 20 11 W 1013,3 60 41 0,0
25.06.2017 19:00:00 26,1 11,4 32,4 21,2 16,6 10 5 19 10 W 1013,4 60 43 0,0
25.06.2017 18:00:00 26,3 10,4 34,9 21,1 16,6 8 5 26 14 WNW 1013,6 20 43 0,0
25.06.2017 17:00:00 25,6 11,4 35,1 21,0 16,6 10 6 21 12 WNW 1014,4 60 43 0,0
25.06.2017 16:00:00 25,1 10,9 35,9 20,9 16,6 13 7 27 15 W 1015,2 60 42 0,0
25.06.2017 15:00:00 24,2 11,8 34,2 20,9 16,6 10 6 27 15 NW 1015,9 19 42 0,0
25.06.2017 14:00:00 23,0 12,0 32,4 20,9 16,6 8 4 26 14 WNW 1016,8 60 41 0,0
25.06.2017 13:00:00 21,9 10,7 31,7 20,9 16,6 11 6 24 13 NNW 1017,8 20 40 0,0
25.06.2017 12:00:00 21,1 11,4 30,0 20,9 16,6 12 7 25 14 WNW 1018,0 60 41 0,0
25.06.2017 11:00:00 20,0 12,0 29,4 21,0 16,6 11 6 20 11 WNW 1018,2 60 44 0,0
25.06.2017 10:00:00 18,5 11,3 20,1 21,1 16,6 11 6 21 12 NNW 1018,8 60 35 0,0
25.06.2017 09:00:00 17,3 13,0 20,0 21,2 16,5 8 4 14 8 NW 1019,2 60 41 0,0
25.06.2017 08:00:00 15,3 13,1 12,3 21,3 16,6 5 3 8 4 WNW 1019,5 20 42 0,0
25.06.2017 07:00:00 13,7 12,6 9,3 21,4 16,6 3 2 11 6 W 1019,9 17 19 0,0
25.06.2017 06:00:00 13,7 12,4 9,4 21,4 16,6 5 3 10 6 WNW 1019,8 34 0 0,0
25.06.2017 05:00:00 15,3 13,0 14,5 21,5 16,5 4 2 6 3 WNW 1019,9 48 0 0,0
25.06.2017 04:00:00 15,4 13,1 14,9 21,5 16,5 5 3 9 5 WSW 1020,3 50 0 0,0
25.06.2017 03:00:00 15,5 13,0 15,0 21,6 16,6 7 4 14 8 NW 1020,4 51 0 0,0
25.06.2017 02:00:00 15,8 12,9 14,1 21,6 16,5 10 5 16 9 WNW 1020,4 55 0 0,0
25.06.2017 01:00:00 16,0 12,9 14,3 21,6 16,5 10 5 18 10 NW 1020,4 60 0 0,0
25.06.2017 00:00:00 16,5 13,2 13,8 21,6 16,5 11 6 17 9 W 1020,3 59 0 0,0
24.06.2017 23:00:00 17,8 13,5 14,1 21,6 16,5 4 2 6 4 WNW 1019,5 60 0 0,0
24.06.2017 22:00:00 18,4 13,7 17,0 21,5 16,5 6 3 16 9 WNW 1018,9 42 0 0,0
24.06.2017 21:00:00 19,2 13,6 19,1 21,4 16,5 15 8 24 13 NW 1018,4 60 5 0,0
24.06.2017 20:00:00 20,0 13,9 20,5 21,4 16,5 17 9 27 15 WNW 1018,0 60 23 0,0
24.06.2017 19:00:00 20,5 14,6 21,4 21,2 16,5 16 9 28 15 WNW 1017,5 59 0 0,0
24.06.2017 18:00:00 21,9 14,8 24,6 21,2 16,5 16 8 29 16 WNW 1017,1 52 1 0,0
24.06.2017 17:00:00 23,6 15,4 28,1 21,1 16,5 14 8 23 13 WNW 1016,8 55 33 0,0
24.06.2017 16:00:00 24,3 15,5 30,0 21,0 16,5 12 6 29 16 WNW 1017,1 20 37 0,0
24.06.2017 15:00:00 23,3 15,1 32,3 21,0 16,5 12 6 21 11 WNW 1017,7 19 43 0,0
24.06.2017 14:00:00 21,9 14,8 32,7 21,0 16,5 9 5 21 11 W 1018,5 19 41 0,0
24.06.2017 13:00:00 20,7 15,7 23,6 21,1 16,5 5 3 16 9 W 1019,6 20 4 0,0
24.06.2017 12:00:00 18,9 14,6 23,8 21,2 16,5 9 5 15 8 WNW 1020,2 19 0 0,0
24.06.2017 11:00:00 18,7 14,4 22,9 21,2 16,5 8 5 16 9 NW 1020,6 19 0 0,0
24.06.2017 10:00:00 18,1 14,4 20,0 21,3 16,5 6 3 27 15 NW 1020,7 20 0 0,0
24.06.2017 09:00:00 17,2 14,8 18,7 21,3 16,4 9 5 14 7 NW 1021,3 20 0 0,0
24.06.2017 08:00:00 17,0 15,7 17,3 21,4 16,4 8 4 11 6 NW 1021,2 17 0 0,0
24.06.2017 07:00:00 16,9 15,9 16,8 21,5 16,4 4 2 7 4 NW 1021,5 15 0 0,0
24.06.2017 06:00:00 17,0 15,7 16,8 21,5 16,4 6 3 14 8 WNW 1021,7 17 0 0,0
24.06.2017 05:00:00 17,1 15,8 17,0 21,6 16,4 9 5 15 8 WNW 1021,8 17 0 0,0
24.06.2017 04:00:00 17,5 16,4 17,3 21,7 16,4 6 4 11 6 NW 1022,0 14 0 0,0
24.06.2017 03:00:00 17,6 16,1 17,4 21,7 16,4 4 2 6 4 WNW 1022,1 16 0 0,0
24.06.2017 02:00:00 17,8 16,1 17,5 21,7 16,4 4 2 10 5 W 1022,5 16 0 0,0
24.06.2017 01:00:00 17,9 16,4 17,9 21,8 16,4 6 4 17 9 NNW 1022,3 16 0 0,0
24.06.2017 00:00:00 18,2 17,0 18,2 21,8 16,4 9 5 15 8 NW 1022,2 13 0 0,0
23.06.2017 23:00:00 18,6 17,1 18,5 21,9 16,4 9 5 19 10 WNW 1022,2 16 0 0,0
23.06.2017 22:00:00 19,4 17,5 19,2 21,9 16,4 11 6 18 10 NW 1021,7 19 0 0,0
23.06.2017 21:00:00 19,8 17,6 20,0 21,9 16,4 5 3 16 9 WNW 1021,1 51 0 0,0
23.06.2017 20:00:00 20,1 18,2 20,9 21,9 16,4 9 5 20 11 WNW 1020,8 50 0 0,0
23.06.2017 19:00:00 20,7 18,6 22,5 21,9 16,4 14 8 18 10 NW 1020,3 52 0 0,0
23.06.2017 18:00:00 20,6 18,9 23,3 21,9 16,4 8 4 16 9 WNW 1020,2 53 0 0,0
23.06.2017 17:00:00 20,3 18,8 21,1 21,9 16,4 11 6 18 10 NW 1020,7 20 0 0,0
23.06.2017 16:00:00 19,9 18,9 21,0 21,9 16,3 10 5 18 10 NW 1021,3 11 0 0,4
23.06.2017 15:00:00 22,0 18,8 26,2 22,0 16,4 13 7 18 10 WSW 1021,0 19 0 0,0
23.06.2017 14:00:00 21,8 18,6 25,2 22,0 16,3 14 7 18 10 W 1021,0 19 0 0,0
23.06.2017 13:00:00 22,4 18,4 24,0 22,1 16,3 5 3 15 8 S 1020,7 20 0 0,0
23.06.2017 12:00:00 21,6 18,4 23,3 22,2 16,3 6 3 13 7 SW 1021,0 20 0 0,0
23.06.2017 11:00:00 20,8 18,4 22,5 22,3 16,4 6 4 11 6 WSW 1021,2 19 0 0,2
23.06.2017 10:00:00 19,4 18,6 19,3 22,4 16,3 3 2 13 7 NNW 1021,4 10 0 0,0
23.06.2017 09:00:00 18,8 18,5 19,3 22,5 16,3 9 5 13 7 NW 1021,2 2,0 0 0,0
23.06.2017 08:00:00 19,2 18,7 19,1 22,6 16,3 7 4 11 6 W 1020,6 3,1 0 0,0
23.06.2017 07:00:00 19,1 18,1 18,5 22,7 16,3 4 2 8 5 WNW 1020,2 3,5 0 0,0
23.06.2017 06:00:00 18,7 16,1 17,1 22,7 16,3 3 1 8 4 SW 1020,0 20 0 0,0
23.06.2017 05:00:00 18,8 15,1 13,2 22,8 16,3 5 3 7 4 WNW 1019,6 39 0 0,0
23.06.2017 04:00:00 17,5 14,0 13,1 22,9 16,3 0 0 6 4 N 1019,8 43 0 0,0
23.06.2017 03:00:00 18,1 14,0 13,4 22,9 16,3 4 2 7 4 SE 1019,6 43 0 0,0
23.06.2017 02:00:00 18,8 14,7 15,6 22,9 16,3 5 3 20 11 NW 1019,1 47 0 0,0
23.06.2017 01:00:00 19,6 14,2 15,9 22,9 16,3 7 4 10 6 E 1018,5 55 0 0,0
23.06.2017 00:00:00 20,4 15,0 17,0 22,9 16,3 8 4 10 6 E 1018,2 53 0 0,0
22.06.2017 23:00:00 22,0 15,1 17,6 22,8 16,3 8 4 10 6 E 1017,7 56 0 0,0
22.06.2017 22:00:00 23,5 15,8 18,6 22,7 16,3 6 3 8 4 E 1016,6 59 0 0,0
22.06.2017 21:00:00 28,3 13,4 21,1 22,5 16,2 2 1 6 4 N 1015,1 60 18 0,0
22.06.2017 20:00:00 30,1 13,8 28,1 22,4 16,2 8 4 17 9 WNW 1014,8 59 53 0,0
22.06.2017 19:00:00 31,6 12,4 34,2 22,2 16,2 11 6 19 10 W 1014,0 18 60 0,0
22.06.2017 18:00:00 31,7 13,0 36,4 22,1 16,3 13 7 20 11 W 1014,1 46 60 0,0
22.06.2017 17:00:00 31,9 12,2 39,2 22,0 16,2 11 6 26 14 W 1014,5 19 60 0,0
22.06.2017 16:00:00 31,6 11,4 38,6 21,9 16,2 14 7 27 15 WNW 1014,7 20 60 0,0
22.06.2017 15:00:00 31,1 15,1 38,2 21,9 16,2 10 6 24 13 NW 1014,7 19 60 -
22.06.2017 14:00:00 30,8 14,8 39,2 21,8 16,2 6 3 29 16 WNW 1014,9 19 60 3,3
22.06.2017 13:00:00 30,2 19,3 30,2 21,9 16,2 9 5 21 12 W 1015,2 20 47 0,0
22.06.2017 12:00:00 29,7 18,5 32,2 21,9 16,2 11 6 21 11 W 1015,3 36 56 0,0
22.06.2017 11:00:00 28,1 18,5 35,6 22,0 16,2 5 3 11 6 SW 1015,7 19 60 0,0
22.06.2017 10:00:00 26,7 17,7 28,0 22,1 16,2 4 2 13 7 ESE 1015,9 11 60 0,0
22.06.2017 09:00:00 23,4 16,4 22,6 22,2 16,2 10 5 18 10 E 1016,4 11 60 0,0
22.06.2017 08:00:00 20,4 15,6 17,4 22,3 16,2 13 7 17 9 E 1017,0 10 60 0,0
22.06.2017 07:00:00 17,9 15,7 16,0 22,4 16,2 9 5 14 8 E 1017,4 16 10 0,0
22.06.2017 06:00:00 17,3 15,5 15,1 22,5 16,2 11 6 13 7 ESE 1017,4 15 0 0,0
22.06.2017 05:00:00 17,1 15,6 14,9 22,5 16,2 9 5 11 6 E 1017,3 17 0 0,0
22.06.2017 04:00:00 18,1 15,7 15,6 22,5 16,2 9 5 11 6 ESE 1017,0 18 0 0,0
22.06.2017 03:00:00 19,0 15,9 16,6 22,6 16,2 8 4 13 7 ESE 1016,7 15 0 0,0
22.06.2017 02:00:00 19,3 16,1 16,8 22,6 16,2 9 5 16 9 E 1016,8 16 0 0,0
22.06.2017 01:00:00 20,5 16,3 17,7 22,5 16,1 12 6 15 8 E 1016,8 17 0 0,0
22.06.2017 00:00:00 21,1 17,1 17,9 22,5 16,1 8 4 12 7 E 1016,4 18 0 0,0
21.06.2017 23:00:00 21,9 17,5 20,0 22,4 16,1 10 5 17 9 E 1016,2 18 0 0,0
21.06.2017 22:00:00 24,7 18,6 23,0 22,3 16,1 9 5 13 7 E 1015,2 18 0 0,0
21.06.2017 21:00:00 26,6 18,7 26,1 22,2 16,1 8 4 13 7 ESE 1014,3 21 55 0,0
21.06.2017 20:00:00 28,4 17,6 29,3 22,1 16,1 5 3 12 7 SSE 1013,1 20 60 0,0
21.06.2017 19:00:00 26,9 17,4 29,5 21,9 16,1 10 5 19 11 E 1013,5 25 52 0,0
21.06.2017 18:00:00 25,5 16,4 27,8 21,8 16,1 14 8 22 12 E 1013,8 20 23 0,0
21.06.2017 17:00:00 26,0 16,0 29,3 21,7 16,1 13 7 25 14 ESE 1013,8 20 32 0,0
21.06.2017 16:00:00 31,5 15,9 38,6 21,6 16,1 11 6 24 13 W 1012,3 20 60 0,0
21.06.2017 15:00:00 30,7 11,1 38,0 21,5 16,1 14 8 23 12 WNW 1013,0 20 60 0,0
21.06.2017 14:00:00 29,6 13,8 37,6 21,5 16,1 13 7 24 13 WNW 1013,7 19 60 0,0
21.06.2017 13:00:00 29,0 14,8 37,4 21,6 16,1 11 6 21 12 NW 1014,3 18 60 0,0
21.06.2017 12:00:00 27,8 17,0 35,2 21,6 16,1 6 3 16 9 W 1014,7 18 60 0,0
21.06.2017 11:00:00 27,1 17,0 33,1 21,7 16,1 8 4 13 7 NW 1014,7 15 60 0,0
21.06.2017 10:00:00 25,8 16,9 29,6 21,8 16,1 2 1 7 4 W 1014,9 14 60 0,0
21.06.2017 09:00:00 22,6 15,9 23,0 21,9 16,1 5 3 11 6 E 1015,9 16 60 0,0
21.06.2017 08:00:00 19,3 15,4 15,9 22,0 16,1 5 3 8 4 E 1016,5 16 60 0,0
21.06.2017 07:00:00 16,8 14,4 12,8 22,1 16,1 5 3 9 5 E 1017,1 16 25 0,0
21.06.2017 06:00:00 15,7 13,9 13,2 22,2 16,1 7 4 12 7 E 1017,0 16 0 0,0
21.06.2017 05:00:00 16,5 14,5 13,0 22,3 16,1 6 3 12 6 E 1016,8 18 0 0,0
21.06.2017 04:00:00 16,3 14,8 14,0 22,3 16,1 9 5 11 6 E 1016,9 14 0 0,0
21.06.2017 03:00:00 17,5 15,3 14,2 22,3 16,0 9 5 10 6 ESE 1017,0 16 0 0,0
21.06.2017 02:00:00 17,8 15,4 14,2 22,3 16,0 10 5 15 8 E 1017,2 18 0 0,0
21.06.2017 01:00:00 19,0 15,7 15,3 22,3 16,0 6 3 10 5 E 1017,1 19 0 0,0
21.06.2017 00:00:00 20,4 16,0 15,1 22,2 16,0 6 4 8 5 ESE 1016,7 22 0 0,0
20.06.2017 23:00:00 22,1 16,1 16,0 22,1 16,0 4 2 5 3 E 1016,6 22 0 0,0
20.06.2017 22:00:00 24,7 15,6 17,7 22,0 16,0 3 2 6 4 SW 1015,5 20 0 0,0
20.06.2017 21:00:00 26,9 15,3 22,7 21,8 16,0 6 3 13 7 W 1014,2 26 40 0,0
20.06.2017 20:00:00 28,8 14,6 27,6 21,7 16,0 9 5 16 9 WSW 1013,8 39 60 0,0
20.06.2017 19:00:00 29,6 15,7 32,6 21,5 16,0 13 7 21 12 SW 1013,4 30 60 0,0
20.06.2017 18:00:00 29,6 17,1 35,8 21,4 16,0 11 6 22 12 SW 1013,6 20 60 0,0
20.06.2017 17:00:00 29,9 17,7 37,5 21,3 16,0 11 6 31 17 WSW 1013,9 18 60 0,0
20.06.2017 16:00:00 29,9 18,3 37,3 21,2 16,0 10 6 24 13 SSW 1014,0 19 60 0,0
20.06.2017 15:00:00 29,3 16,8 35,9 21,1 15,9 8 5 22 12 SSW 1014,6 19 60 0,0
20.06.2017 14:00:00 29,0 16,9 36,4 21,1 16,0 13 7 25 14 S 1015,1 21 60 0,0
20.06.2017 13:00:00 27,8 16,1 35,4 21,1 15,9 13 7 23 12 SE 1015,8 18 60 0,0
20.06.2017 12:00:00 26,9 16,5 32,8 21,2 15,9 11 6 18 10 ESE 1016,3 19 60 0,0
20.06.2017 11:00:00 25,3 15,0 29,9 21,3 15,9 11 6 23 12 SE 1016,9 10 60 0,0
20.06.2017 10:00:00 24,0 14,1 26,2 21,4 15,9 14 8 21 12 SE 1017,3 11 60 0,0
20.06.2017 09:00:00 22,1 13,2 22,4 21,5 15,9 12 6 19 10 E 1017,4 10 60 0,0
20.06.2017 08:00:00 19,7 12,0 17,0 21,6 15,9 11 6 16 9 E 1018,2 11 60 0,0
20.06.2017 07:00:00 17,6 11,4 14,9 21,7 15,9 14 8 21 11 E 1018,6 13 28 0,0

tt = Température de l'air
td = dewpoint
tt 5cm = Température de l'air 5cm
tt -20cm = Température de l'air -20cm
tt -100cm = Température de l'air -100cm
ff = Vitesse du vent
fx = gusts
dd = Direction du vent
ppp = reduced air pressure
vv = visibility
sd = Ensoleillement
rr = Quantités de précipitations

stations d'obs. à proximité